Kirksville, MO

4:21 AM CDT on May 30, 2017 (GMT -0500)
Kirksville Regional

Weather History for KIRK - September, 2012

Change the Weather History Date:

Wednesday, September 5, 2012

  Actual Average Record
Temperature  
Mean Temperature 78 °F 69 °F  
Max Temperature 89 °F 80 °F 100 °F (1925)
Min Temperature 66 °F 58 °F 41 °F (1974)
Degree Days  
Heating Degree Days 0 1  
Month to date heating degree days 0 5  
Since 1 July heating degree days 7 12  
Cooling Degree Days 13 5  
Month to date cooling degree days 59 27  
Year to date cooling degree days 1271 871  
Growing Degree Days 28 (Base 50)    
Moisture  
Dew Point 67 °F    
Average Humidity 72    
Maximum Humidity 97    
Minimum Humidity 47    
Precipitation  
Precipitation 0.00 in 0.16 in 1.74 in (1971)
Month to date precipitation 2.12 0.76  
Year to date precipitation 19.95 28.17  
Sea Level Pressure  
Sea Level Pressure 29.84 in    
Wind  
Wind Speed 8 mph (SSE)    
Max Wind Speed 22 mph    
Max Gust Speed 31 mph    
Visibility 10 miles    
Events      
T = Trace of Precipitation, MM = Missing Value Source: NWS Daily Summary

Daily Weather History Graph

Daily Weather History Graph

Search for Another Location

Airport or City:

Trip Planner

Search our weather history database for the weather conditions in past years. The results will help you decide how hot, cold, wet, or windy it might be!

Date:

Astronomy

Sep. 05, 2012 Rise Set
Actual Time 6:42 AM CDT 7:34 PM CDT
Civil Twilight 6:14 AM CDT 8:02 PM CDT
Nautical Twilight 5:41 AM CDT 8:34 PM CDT
Astronomical Twilight 5:07 AM CDT 9:08 PM CDT
Moon 10:04 PM CDT (9/5) 11:46 AM CDT (9/5)
Length of Visible Light 13h 47m
Length of Day
12h 52m
Waning Gibbous, 76% of the Moon is Illuminated
Sep 5
Waning Gibbous
Sep 8
Last Quarter
Sep 15
New
Sep 22
First Quarter
Sep 29
Full

Hourly Weather History & Observations

Time (CDT) Temp. Heat Index Dew Point Humidity Pressure Visibility Wind Dir Wind Speed Gust Speed Precip Events Conditions
12:55 AM 73.0 °F - 68.0 °F 84% 29.80 in 10.0 mi SSE 4.6 mph - N/A   Clear
1:55 AM 70.0 °F - 68.0 °F 93% 29.79 in 10.0 mi SE 3.5 mph - N/A   Clear
2:55 AM 70.0 °F - 68.0 °F 93% 29.80 in 10.0 mi South 4.6 mph - N/A   Clear
3:55 AM 70.0 °F - 68.0 °F 93% 29.78 in 10.0 mi SE 5.8 mph - N/A   Clear
4:55 AM 71.1 °F - 69.1 °F 93% 29.80 in 10.0 mi Calm Calm - N/A   Clear
5:55 AM 73.0 °F - 69.1 °F 87% 29.84 in 10.0 mi NE 17.3 mph 20.7 mph N/A   Clear
6:55 AM 69.1 °F - 63.0 °F 81% 29.87 in 10.0 mi ENE 12.7 mph 17.3 mph N/A   Partly Cloudy
7:55 AM 66.9 °F - 63.0 °F 87% 29.87 in 10.0 mi ENE 11.5 mph - N/A   Clear
8:55 AM 69.1 °F - 63.0 °F 81% 29.86 in 10.0 mi ESE 12.7 mph - N/A   Clear
9:55 AM 73.4 °F - 62.6 °F 69% 29.91 in 10.0 mi SSE 12.7 mph 21.9 mph N/A   Clear
10:55 AM 75.9 °F - 63.0 °F 64% 29.87 in 10.0 mi ESE 13.8 mph - N/A   Clear
11:55 AM 81.0 °F 82.7 °F 64.9 °F 58% 29.85 in 10.0 mi South 9.2 mph - N/A   Clear
12:55 PM 82.0 °F 84.5 °F 66.9 °F 60% 29.84 in 10.0 mi SSE 11.5 mph - N/A   Clear
1:55 PM 84.9 °F 87.6 °F 66.9 °F 55% 29.83 in 10.0 mi Variable 6.9 mph - N/A   Clear
2:55 PM 87.1 °F 89.9 °F 66.9 °F 51% 29.82 in 10.0 mi SW 8.1 mph - N/A   Clear
3:55 PM 87.1 °F 90.6 °F 68.0 °F 53% 29.82 in 10.0 mi SW 9.2 mph - N/A   Partly Cloudy
4:55 PM 89.1 °F 92.1 °F 66.9 °F 48% 29.82 in 10.0 mi West 6.9 mph - N/A   Partly Cloudy
5:55 PM 87.1 °F 90.6 °F 68.0 °F 53% 29.83 in 10.0 mi West 6.9 mph - N/A   Partly Cloudy
6:55 PM 84.2 °F 88.4 °F 69.8 °F 62% 29.84 in 10.0 mi Calm Calm - N/A   Clear
7:55 PM 79.0 °F - 69.1 °F 72% 29.85 in 10.0 mi NW 3.5 mph - N/A   Clear
8:55 PM 72.0 °F - 70.0 °F 93% 29.86 in 10.0 mi Calm Calm - N/A   Clear
9:55 PM 72.0 °F - 68.0 °F 87% 29.87 in 10.0 mi WNW 3.5 mph - N/A   Clear
10:55 PM 73.9 °F - 64.9 °F 73% 29.88 in 10.0 mi NNW 8.1 mph - N/A   Clear
11:55 PM 72.0 °F - 61.0 °F 68% 29.90 in 10.0 mi NNW 5.8 mph - N/A   Clear